Date,TemperatureHighF,TemperatureAvgF,TemperatureLowF,DewpointHighF,DewpointAvgF,DewpointLowF,HumidityHigh,HumidityAvg,HumidityLow,PressureMaxIn,PressureMinIn,WindSpeedMaxMPH,WindSpeedAvgMPH,GustSpeedMaxMPH,PrecipitationSumIn
2013-1-1,49,48,44,48,42,32,98,83,57,30.02,29.85,13,0,13,0.45
2013-1-2,53,48,45,49,46,42,98,93,82,30.05,29.81,7,0,7,0.10
2013-1-3,45,40,30,42,38,28,95,91,85,30.17,30.00,10,0,10,0.00
2013-1-4,52,35,22,33,25,20,100,71,34,30.24,30.11,15,1,15,0.01
2013-1-5,47,36,23,35,26,20,90,69,46,30.27,30.11,7,0,7,0.01
2013-1-6,56,44,35,45,38,31,89,79,65,30.12,29.93,13,0,13,0.02
2013-1-7,52,38,27,34,30,24,93,76,48,30.31,30.10,9,0,9,0.00
2013-1-9,62,54,43,54,50,40,94,85,74,30.34,30.27,7,0,7,0.00
2013-1-10,67,55,44,55,49,43,98,82,64,30.39,30.26,9,0,9,0.01
2013-1-11,52,48,47,48,47,46,97,96,83,30.27,30.07,9,1,9,0.24
2013-1-12,72,64,48,67,61,48,99,90,76,30.07,30.00,11,0,11,0.01
2013-1-13,71,61,55,64,59,54,98,93,77,30.05,29.96,13,1,13,0.00
2013-1-14,66,63,58,65,62,57,99,97,95,30.03,29.96,16,0,16,0.26
2013-1-15,58,49,42,58,48,41,98,97,96,30.07,29.96,13,1,13,0.40
2013-1-16,50,46,42,50,45,42,98,97,97,29.97,29.87,6,0,6,0.42
2013-1-17,51,48,36,51,47,36,98,97,96,30.08,29.68,23,2,23,2.27
2013-1-18,51,39,30,36,31,27,96,75,49,30.38,30.08,13,1,13,0.00
2013-1-19,54,38,24,37,30,23,96,73,43,30.37,30.05,13,0,13,0.01
2013-1-20,64,48,32,41,33,28,88,59,38,30.05,29.92,17,2,17,0.00
2013-1-21,62,42,27,37,29,20,93,63,36,29.98,29.83,29,2,29,0.00
2013-1-22,42,35,28,20,12,4,51,39,23,30.13,29.91,25,5,25,0.00
2013-1-23,49,35,22,30,20,10,77,56,41,30.22,29.95,13,1,13,0.00
2013-1-24,49,40,25,34,22,9,74,51,30,30.36,29.87,22,4,22,0.00
2013-1-25,27,25,21,25,18,10,93,75,52,30.39,29.99,4,0,4,0.01
2013-1-26,49,33,23,38,29,21,97,85,56,30.23,29.98,4,0,4,0.06
2013-1-27,45,36,28,33,29,25,94,77,59,30.44,30.23,9,0,9,0.00
2013-1-28,54,43,36,46,38,31,93,82,71,30.34,30.14,11,0,11,0.01
2013-1-29,69,57,39,61,52,37,97,87,73,30.14,29.92,17,1,17,0.01
2013-1-30,69,63,48,64,60,45,97,90,81,29.93,29.40,40,3,40,1.45
2013-1-31,50,43,36,45,30,23,91,61,41,29.93,29.47,27,5,27,0.01
2013-2-1,40,35,24,32,17,7,75,50,30,30.24,29.82,27,5,27,0.00
2013-2-2,44,32,20,35,23,15,92,72,39,30.26,29.93,25,2,25,0.00
2013-2-3,39,39,39,35,35,35,88,88,88,29.93,29.93,8,8,17,0.00
2013-2-4,51,40,26,31,28,21,87,63,42,30.02,29.88,9,1,11,0.00
2013-2-5,65,49,37,46,38,30,87,65,38,29.89,29.78,25,2,25,0.00
2013-2-6,65,49,36,42,35,26,94,63,26,30.07,29.88,16,2,16,0.00
2013-2-7,45,41,40,39,37,29,95,87,56,30.16,29.90,16,3,16,0.74
2013-2-8,59,46,38,50,39,30,96,79,50,30.02,29.79,21,3,22,0.00
2013-2-9,61,43,30,32,28,24,85,59,30,30.22,30.00,11,1,11,0.00
2013-2-10,57,44,33,44,34,28,95,71,39,30.31,30.05,6,0,6,0.16
2013-2-11,57,50,43,56,49,42,98,96,94,30.07,29.87,17,2,17,0.11
2013-2-12,57,50,41,50,38,32,96,68,39,30.00,29.80,14,1,14,0.06
2013-2-13,49,44,38,47,42,33,97,91,69,29.86,29.57,24,1,24,0.06
2013-2-14,54,40,27,38,33,26,95,78,52,29.96,29.77,12,0,12,0.00
2013-2-15,62,44,26,41,34,25,95,71,41,29.99,29.82,16,2,16,0.00
2013-2-16,44,36,26,34,30,21,94,78,64,29.92,29.76,15,1,15,0.04
2013-2-17,42,32,24,21,16,12,84,52,34,30.14,29.91,24,5,24,0.04
2013-2-18,56,39,21,33,24,14,87,58,40,30.25,30.09,13,1,13,0.00
2013-2-19,53,43,36,46,35,20,96,74,39,30.09,29.77,16,3,19,0.18
2013-2-20,56,43,32,25,18,13,53,37,20,30.01,29.92,19,3,20,0.00
2013-2-21,59,41,24,39,25,13,89,55,28,30.13,29.97,10,0,10,0.09
2013-2-22,41,39,37,38,37,36,96,95,89,30.19,30.00,8,0,9,0.35
2013-2-23,45,40,37,43,39,36,97,95,92,30.03,29.75,6,0,6,0.45
2013-2-24,65,50,38,45,37,29,100,67,28,29.92,29.75,16,1,16,0.00
2013-2-25,45,40,33,33,30,28,87,67,58,30.07,29.91,16,1,16,0.00
2013-2-26,41,36,33,40,34,30,97,94,73,29.97,29.51,18,2,18,1.41
2013-2-27,58,46,36,43,39,34,97,76,55,29.71,29.55,19,3,19,0.01
2013-2-28,49,41,30,36,30,25,88,66,49,29.80,29.63,23,3,23,0.00
2013-3-1,50,37,24,34,29,22,93,74,50,29.84,29.76,14,1,14,0.00
2013-3-2,46,39,31,39,32,24,93,76,58,29.84,29.73,20,1,20,0.06
2013-3-3,47,33,21,26,22,18,91,64,43,29.91,29.79,18,2,18,0.00
2013-3-4,58,38,18,28,22,16,90,56,27,30.04,29.91,13,1,13,0.00
2013-3-5,52,45,39,47,39,25,96,80,56,29.96,29.53,20,1,20,0.46
2013-3-6,48,40,33,41,28,23,96,62,49,29.98,29.56,28,7,28,0.00
2013-3-7,57,44,26,35,30,23,90,59,42,30.16,30.03,11,2,11,0.00
2013-3-8,59,41,24,31,26,21,91,59,28,30.21,30.09,18,1,18,0.00
2013-3-9,64,45,26,39,32,23,90,62,36,30.25,30.13,8,0,8,0.00
2013-3-10,68,51,33,43,38,31,92,65,38,30.19,30.06,10,0,10,0.00
2013-3-11,67,55,42,55,48,38,96,80,60,30.08,29.76,9,0,9,0.58
2013-3-12,67,57,45,56,46,33,97,68,33,29.91,29.65,15,3,17,0.23
2013-3-13,57,46,34,34,31,24,83,58,36,29.99,29.90,26,3,26,0.00
2013-3-14,54,46,39,22,19,16,47,34,27,30.10,30.05,16,2,16,0.00
2013-3-15,70,49,27,46,34,20,86,57,39,30.09,29.80,20,2,20,0.00
2013-3-16,79,66,56,55,48,44,66,53,41,29.81,29.65,28,5,28,0.00
2013-3-17,78,63,45,55,48,40,82,60,41,30.00,29.77,19,3,19,0.00
2013-3-18,45,41,39,41,39,38,96,93,82,30.03,29.77,15,2,15,0.78
2013-3-19,65,51,41,43,34,22,97,60,26,29.97,29.75,23,5,28,0.00
2013-3-20,59,49,43,28,23,19,51,36,27,30.01,29.70,24,2,24,0.00
2013-3-21,45,38,30,30,17,11,60,44,32,29.86,29.71,27,5,27,0.00
2013-3-22,53,38,23,29,22,15,87,56,35,29.97,29.85,13,1,13,0.00
2013-3-23,56,45,39,45,38,28,93,77,53,29.94,29.79,6,0,6,0.03
2013-3-24,44,42,39,42,40,38,95,94,89,29.83,29.47,17,2,17,0.97
2013-3-25,48,41,36,38,30,23,96,69,43,29.81,29.46,27,5,27,0.04
2013-3-26,47,38,28,29,26,22,87,61,46,30.08,29.80,19,3,19,0.00
2013-3-27,54,40,24,33,26,22,94,62,36,30.16,30.06,19,2,19,0.00
2013-3-28,59,42,24,31,26,22,91,59,32,30.20,30.08,15,1,15,0.00
2013-3-29,63,46,28,41,31,24,88,60,31,30.24,30.09,15,2,16,0.00
2013-3-30,66,53,44,49,45,41,96,75,47,30.13,29.94,10,1,10,0.15
2013-3-31,70,57,49,60,52,44,97,86,61,29.95,29.73,25,2,25,0.36
2013-4-1,71,61,51,55,48,39,96,67,37,29.88,29.75,23,3,23,0.01
2013-4-2,66,56,45,40,35,26,66,45,28,30.05,29.88,24,3,24,0.00
2013-4-3,61,53,44,34,30,23,54,41,33,30.17,30.02,14,1,16,0.00
2013-4-4,51,42,37,37,33,27,95,73,47,30.16,29.89,18,4,21,0.58
2013-4-5,67,50,37,50,41,36,96,73,32,29.96,29.80,15,2,15,0.00
2013-4-6,71,54,35,45,40,33,94,62,33,30.12,29.96,11,0,11,0.00
2013-4-7,72,59,42,53,46,38,90,65,46,30.14,30.00,17,1,19,0.00
2013-4-8,79,64,48,61,54,45,95,71,48,30.07,29.96,20,1,20,0.00
2013-4-9,84,70,54,63,58,51,92,67,47,30.11,30.00,17,1,17,0.00
2013-4-10,86,72,59,65,60,56,91,68,47,30.02,29.86,16,1,16,0.00
2013-4-11,82,70,60,67,62,58,94,77,54,29.89,29.65,20,1,20,0.00
2013-4-12,81,69,60,67,57,41,97,70,34,29.75,29.58,30,4,30,0.60
2013-4-13,78,61,41,48,42,39,94,55,26,29.93,29.75,20,1,21,0.00
2013-4-14,75,60,42,54,48,40,94,67,43,30.00,29.89,3,0,7,0.02
2013-4-15,68,60,55,62,57,54,96,90,78,30.11,29.89,12,1,12,0.05
2013-4-16,80,67,58,65,60,56,95,80,56,30.20,30.09,9,0,9,0.00
2013-4-17,80,66,57,67,61,55,96,86,60,30.16,30.03,17,1,17,0.01
2013-4-18,81,68,58,66,62,57,97,83,57,30.07,29.89,11,0,11,0.02
2013-4-19,73,64,52,68,62,44,96,91,78,29.89,29.68,21,2,21,0.43
2013-4-20,64,53,40,44,38,32,91,61,38,30.16,29.83,13,1,13,0.00
2013-4-21,64,52,36,45,40,34,94,67,45,30.33,30.16,16,1,16,0.00
2013-4-22,63,52,42,44,40,37,86,66,43,30.32,30.11,17,1,17,0.00
2013-4-23,72,55,37,54,45,34,91,70,48,30.17,30.00,11,0,11,0.00
2013-4-24,74,61,47,61,55,46,95,81,60,30.04,29.91,21,2,21,0.00
2013-4-25,72,61,48,59,46,36,94,62,36,30.19,29.96,9,1,12,0.00
2013-4-26,72,57,37,51,42,35,91,62,34,30.33,30.19,11,0,11,0.00
2013-4-27,62,56,54,55,52,46,96,85,67,30.25,30.17,5,0,5,0.61
2013-4-28,55,54,52,54,53,51,97,97,96,30.16,29.95,7,0,13,1.57
2013-4-29,72,61,54,65,58,53,98,90,70,29.97,29.85,7,0,7,0.08
2013-4-30,74,63,53,65,59,52,97,88,66,30.08,29.89,10,0,10,0.00
2013-5-1,66,60,52,59,56,50,97,88,75,30.19,30.08,16,1,16,0.00
2013-5-2,62,58,56,59,56,54,97,94,89,30.20,30.13,14,1,14,0.07
2013-5-3,66,60,56,58,55,53,96,85,72,30.14,30.00,13,1,15,0.01
2013-5-4,59,55,50,54,50,44,93,82,74,30.01,29.88,16,1,16,0.04
2013-5-5,58,52,49,57,51,48,98,96,93,29.93,29.73,22,2,22,3.93
2013-5-6,68,60,51,60,54,48,98,85,55,29.82,29.72,14,0,14,0.29
2013-5-7,72,56,44,56,50,43,96,83,48,29.86,29.77,19,0,21,0.01
2013-5-8,74,63,49,62,56,48,97,81,59,29.93,29.82,10,0,10,0.02
2013-5-9,82,66,50,64,58,49,97,77,49,30.00,29.91,9,0,9,0.00
2013-5-10,81,68,53,67,60,52,97,80,56,29.99,29.87,17,1,17,0.00
2013-5-11,79,69,61,67,63,60,96,81,63,29.88,29.72,19,1,19,0.09
2013-5-12,72,62,52,60,48,31,96,64,25,29.96,29.77,24,2,24,0.00
2013-5-13,68,55,38,45,38,32,95,58,26,30.09,29.96,22,2,22,0.00
2013-5-14,73,58,39,53,45,36,92,64,42,30.16,29.98,13,1,13,0.00
2013-5-15,89,73,56,70,61,52,91,68,48,29.99,29.85,13,1,13,0.00
2013-5-16,82,71,58,66,61,55,94,74,50,29.95,29.87,10,0,10,0.00
2013-5-17,86,72,57,69,63,56,96,77,54,30.00,29.93,10,0,10,0.00
2013-5-18,67,64,61,64,62,60,97,93,88,30.06,29.97,2,0,2,0.35
2013-5-19,76,69,65,71,67,64,98,94,83,30.03,29.93,0,0,5,0.16
2013-5-20,81,72,66,73,68,65,98,89,70,30.05,29.92,1,0,5,0.00
2013-5-21,87,74,62,75,68,61,97,85,61,29.97,29.85,7,0,7,0.00
2013-5-22,86,72,63,75,67,62,97,86,65,29.92,29.78,25,0,25,1.04
2013-5-23,81,68,63,74,66,61,97,94,73,29.90,29.74,12,0,12,0.59
2013-5-24,71,64,55,63,51,41,95,65,37,30.12,29.81,25,4,25,0.01
2013-5-25,77,62,44,55,47,40,88,60,36,30.21,30.07,12,0,12,0.00
2013-5-26,75,63,53,60,53,47,88,71,52,30.20,30.08,6,0,6,0.00
2013-5-27,82,67,50,69,59,49,96,76,52,30.18,30.04,5,0,7,0.00
2013-5-28,84,72,63,70,65,61,94,79,57,30.14,30.06,7,0,7,0.00
2013-5-29,84,73,61,69,64,59,94,76,55,30.15,30.07,7,0,7,0.00
2013-5-30,84,72,60,71,65,58,96,81,58,30.19,30.08,5,0,5,0.00
2013-5-31,86,74,64,72,67,63,96,80,57,30.15,30.02,9,0,9,0.00
2013-6-1,85,76,68,71,68,66,94,79,59,30.05,29.93,11,0,11,0.00
2013-6-2,79,72,68,73,69,66,97,90,79,29.97,29.83,11,0,11,0.41
2013-6-3,82,72,65,76,69,64,98,90,75,29.88,29.77,4,0,4,0.00
2013-6-4,83,73,65,72,68,64,97,84,65,29.99,29.87,11,0,11,0.20
2013-6-5,79,72,67,73,68,65,97,90,81,30.02,29.89,4,0,11,0.25
2013-6-6,74,71,68,73,70,68,98,97,95,29.91,29.73,3,0,9,1.09
2013-6-7,83,72,67,76,69,66,98,91,70,29.76,29.60,11,0,11,0.17
2013-6-8,84,73,66,73,69,65,97,87,66,30.00,29.76,1,0,6,0.00
2013-6-9,86,73,65,77,70,64,97,91,71,30.06,29.96,7,0,7,0.57
2013-6-10,76,71,68,74,70,67,98,94,81,29.99,29.82,17,1,17,0.25
2013-6-11,86,76,68,72,68,65,97,79,52,29.91,29.85,14,0,14,0.00
2013-6-12,90,77,64,79,72,63,97,86,63,29.94,29.82,9,0,9,0.00
2013-6-13,92,78,70,78,72,66,96,82,55,29.82,29.62,19,1,19,0.15
2013-6-14,82,73,62,66,61,57,88,67,47,29.95,29.71,21,2,21,0.00
2013-6-15,84,71,56,69,62,55,96,76,53,30.06,29.95,9,0,9,0.00
2013-6-16,86,75,64,72,67,62,93,79,60,30.06,29.94,14,1,14,0.00
2013-6-17,85,74,68,76,71,67,97,89,71,29.96,29.87,15,0,15,0.40
2013-6-18,83,72,67,77,71,66,98,94,79,29.88,29.71,17,0,17,0.89
2013-6-19,82,73,66,72,68,65,97,85,64,30.02,29.83,7,0,7,0.04
2013-6-20,82,72,65,73,68,63,97,86,67,30.14,30.02,6,0,6,0.01
2013-6-21,84,73,62,72,66,61,97,81,58,30.19,30.08,7,0,7,0.00
2013-6-22,84,73,60,72,66,59,96,81,59,30.14,30.03,10,0,10,0.00
2013-6-23,87,73,63,76,69,62,97,88,63,30.13,30.02,6,0,6,0.21
2013-6-24,87,76,67,79,72,66,98,90,69,30.13,30.01,10,0,12,0.01
2013-6-25,88,75,69,77,71,68,97,88,60,30.06,29.94,12,0,12,0.54
2013-6-26,89,76,68,78,72,67,98,89,63,29.97,29.83,9,0,9,0.01
2013-6-27,89,78,71,80,74,70,97,88,71,29.87,29.66,11,0,11,0.04
2013-6-28,91,79,68,79,73,67,97,82,59,29.72,29.53,9,0,9,0.04
2013-6-29,87,77,68,76,71,67,97,83,62,29.64,29.56,9,0,10,0.00
2013-6-30,86,75,69,77,71,68,97,88,64,29.76,29.62,7,0,7,0.05
2013-7-1,83,74,68,75,71,67,97,90,76,29.88,29.74,7,0,7,0.87
2013-7-2,78,73,68,76,71,67,98,96,88,30.05,29.88,7,0,7,0.67
2013-7-3,80,73,67,76,71,66,98,95,85,30.13,30.03,6,0,12,0.25
2013-7-4,81,72,67,79,71,66,98,97,89,30.15,30.06,17,0,17,2.08
2013-7-5,84,73,69,78,72,68,98,95,75,30.16,30.10,11,0,11,1.82
2013-7-6,84,75,71,78,73,70,98,93,77,30.14,30.02,9,0,10,0.17
2013-7-7,83,76,72,78,74,71,98,94,82,30.10,29.99,9,0,9,0.36
2013-7-8,87,77,72,78,74,71,98,90,74,30.11,30.02,7,0,7,0.01
2013-7-9,89,78,69,80,74,68,97,87,65,30.09,29.97,7,0,7,0.03
2013-7-10,84,75,70,79,73,69,98,94,81,30.05,29.87,12,0,12,1.48
2013-7-11,79,74,70,77,73,69,98,96,89,29.89,29.80,5,0,5,0.00
2013-7-12,83,73,67,78,71,66,98,93,77,29.93,29.81,14,0,16,0.64
2013-7-13,79,72,67,74,70,66,97,93,83,30.03,29.92,11,0,11,0.04
2013-7-14,84,74,70,77,73,69,98,94,77,30.19,30.01,11,0,11,0.57
2013-7-15,85,76,68,76,72,68,98,89,71,30.25,30.16,9,0,9,0.00
2013-7-16,90,79,68,79,73,67,97,84,61,30.24,30.13,7,0,7,0.00
2013-7-17,90,79,71,81,74,70,97,87,68,30.17,30.05,31,0,31,0.00
2013-7-24,86,76,70,78,71,68,94,84,71,29.77,29.68,9,0,15,0.00
2013-7-25,85,74,67,75,70,66,97,87,67,29.94,29.77,11,0,12,0.00
2013-7-26,86,75,67,76,71,66,97,88,69,30.02,29.93,4,0,5,0.00
2013-7-27,78,72,65,76,71,64,98,96,79,29.94,29.83,11,0,11,3.58
2013-7-28,85,75,69,77,72,69,98,90,70,29.93,29.84,13,0,13,0.01
2013-7-29,84,74,65,74,69,64,97,87,62,30.08,29.93,3,0,5,0.00
2013-7-30,82,71,66,73,67,63,97,88,72,30.14,30.07,9,0,9,0.00
2013-7-31,79,73,70,75,72,69,97,95,84,30.08,29.90,4,0,7,0.05
2013-8-1,85,76,71,78,73,70,98,91,75,29.91,29.81,12,0,13,0.00
2013-8-2,87,77,67,77,72,66,98,86,64,29.96,29.85,5,0,5,0.00
2013-8-3,87,78,70,78,72,69,98,85,61,29.95,29.87,9,0,9,0.00
2013-8-4,87,77,69,74,70,66,96,81,60,29.95,29.86,13,1,13,0.00
2013-8-5,85,74,67,76,70,64,95,85,73,30.00,29.90,6,0,6,0.00
2013-8-6,77,72,69,74,70,68,98,96,88,29.98,29.90,9,0,9,0.60
2013-8-7,80,74,70,77,72,69,98,94,85,30.00,29.93,1,0,5,0.03
2013-8-8,85,77,71,79,74,71,98,92,76,29.99,29.92,11,0,11,0.00
2013-8-9,89,77,71,81,74,70,98,92,72,30.00,29.93,11,0,11,0.03
2013-8-10,90,77,70,82,74,69,98,93,72,30.05,29.98,18,0,18,0.28
2013-8-11,89,76,68,81,73,67,98,92,68,30.05,29.97,12,0,12,0.01
2013-8-12,90,78,70,80,74,69,98,89,65,30.00,29.88,5,0,5,0.01
2013-8-13,87,76,70,78,73,69,98,92,72,29.90,29.74,19,0,19,0.81
2013-8-14,79,72,67,72,69,65,98,90,72,29.99,29.80,5,0,5,0.01
2013-8-15,74,67,60,65,62,58,97,85,68,30.08,29.99,9,0,9,0.00
2013-8-16,72,65,61,66,62,59,97,91,77,30.08,30.00,9,0,9,0.04
2013-8-17,68,64,62,64,62,60,97,94,87,30.11,30.05,15,0,15,0.14
2013-8-18,77,69,64,73,68,63,98,94,82,30.13,30.05,4,0,4,0.04
2013-8-19,76,71,66,72,69,66,98,94,82,30.11,30.01,6,0,6,0.54
2013-8-20,78,72,65,74,69,64,98,94,81,30.11,30.03,1,0,1,0.00
2013-8-21,81,73,69,77,72,68,98,96,83,30.16,30.04,0,0,0,0.05
2013-8-22,88,76,69,77,72,68,98,88,63,30.08,29.95,9,0,9,0.00
2013-8-23,88,72,65,78,69,65,98,91,62,29.99,29.90,22,0,22,0.54
2013-8-24,80,70,62,69,65,61,98,84,62,30.20,29.99,14,0,14,0.00
2013-8-25,80,68,58,69,63,57,98,84,61,30.30,30.19,7,0,7,0.00
2013-8-26,82,69,56,71,64,55,100,85,61,30.24,30.04,3,0,3,0.00
2013-8-27,87,73,61,76,69,60,98,87,63,30.07,29.93,10,0,10,0.01
2013-8-28,87,77,67,77,72,66,98,87,67,29.96,29.85,10,0,10,0.00
2013-8-29,91,79,68,78,73,67,98,83,56,29.91,29.82,13,0,13,0.00
2013-8-30,84,77,72,76,72,70,97,87,71,29.98,29.86,10,0,10,0.00
2013-8-31,89,74,68,80,71,67,98,92,72,29.90,29.81,15,0,15,0.04
2013-9-1,88,74,66,79,71,66,98,91,68,29.85,29.72,24,1,24,0.00
2013-9-2,88,76,67,79,72,66,98,89,64,29.84,29.73,6,0,6,0.00
2013-9-3,88,76,68,74,71,68,98,84,58,29.89,29.74,15,0,15,0.00
2013-9-4,85,73,63,73,68,62,98,84,63,30.01,29.89,11,0,11,0.00
2013-9-5,86,74,64,75,68,63,98,84,51,30.04,29.96,6,0,6,0.01
2013-9-6,82,71,60,69,64,59,97,81,56,30.10,29.99,5,0,10,0.00
2013-9-7,84,71,61,72,66,60,97,85,62,30.05,29.90,6,0,6,0.00
2013-9-8,86,73,60,74,68,59,98,85,62,29.92,29.85,10,0,10,0.00
2013-9-9,88,75,63,75,69,62,98,85,61,30.05,29.92,7,0,7,0.00
2013-9-10,89,75,63,76,69,62,98,85,60,30.16,30.05,3,0,3,0.00
2013-9-11,89,75,63,76,69,62,98,84,58,30.13,30.00,7,0,7,0.00
2013-9-12,91,74,66,77,70,65,98,89,60,30.00,29.78,21,0,21,0.00
2013-9-13,84,73,62,70,64,56,97,77,50,29.83,29.71,21,1,21,0.00
2013-9-14,77,64,53,61,56,52,95,77,55,30.02,29.82,13,0,13,0.00
2013-9-15,79,68,55,69,63,54,97,85,68,30.12,30.02,7,0,7,0.00
2013-9-16,84,72,60,71,65,60,98,80,53,30.07,29.97,10,0,10,0.00
2013-9-17,74,68,63,64,60,57,84,76,61,30.22,30.07,12,1,12,0.00
2013-9-18,74,66,58,63,59,55,90,80,64,30.20,30.07,4,0,6,0.00
2013-9-19,83,70,60,69,64,59,97,83,62,30.10,29.99,1,0,4,0.00
2013-9-20,87,72,60,72,66,59,98,83,56,30.00,29.83,6,0,6,0.00
2013-9-21,72,67,62,71,66,61,98,97,93,29.85,29.61,14,0,14,1.82
2013-9-22,77,66,56,64,60,55,98,83,55,29.82,29.65,12,0,12,0.01
2013-9-23,76,64,57,64,59,56,97,86,62,29.97,29.82,12,0,12,0.00
2013-9-24,76,66,57,67,62,56,98,88,69,29.99,29.85,3,0,3,0.00
2013-9-25,66,63,61,64,62,60,98,97,91,29.85,29.79,2,0,2,0.44
2013-9-26,75,64,55,65,59,53,100,86,50,29.94,29.80,13,0,13,0.00
2013-9-27,76,63,51,63,57,50,98,83,59,30.08,29.94,10,0,10,0.01
2013-9-28,73,61,53,61,56,52,97,85,62,30.16,30.06,10,0,10,0.00
2013-9-29,73,62,53,61,57,51,96,85,63,30.09,29.94,5,0,5,0.00
2013-9-30,77,64,54,63,59,53,100,83,57,30.01,29.91,4,0,4,0.00
2013-10-1,81,66,54,66,60,53,98,82,52,30.06,29.95,6,0,6,0.00
2013-10-2,82,67,54,68,61,53,97,84,57,30.07,29.98,6,0,6,0.00
2013-10-3,84,68,56,69,63,56,100,84,58,30.05,29.97,9,0,9,0.00
2013-10-4,86,69,56,71,64,55,98,85,59,30.07,29.99,2,0,5,0.00
2013-10-5,86,70,58,72,65,57,98,85,57,30.05,29.94,5,0,5,0.00
2013-10-6,83,69,58,72,64,57,100,87,64,29.97,29.80,5,0,5,0.00
2013-10-7,76,68,57,72,65,56,98,92,77,29.91,29.72,12,0,12,2.92
2013-10-8,70,61,55,57,53,49,96,75,59,30.10,29.91,22,1,22,0.00
2013-10-9,72,60,49,53,49,46,90,70,45,30.13,30.02,17,1,17,0.00
2013-10-10,76,57,44,61,51,43,97,81,56,30.04,29.89,2,0,10,0.00
2013-10-11,81,68,54,63,58,52,96,74,50,29.92,29.83,13,1,13,0.00
2013-10-12,74,63,52,65,59,51,97,89,69,30.00,29.88,4,0,4,0.00
2013-10-13,75,66,62,66,63,61,97,90,72,30.11,30.00,10,0,10,0.01
2013-10-14,71,65,59,64,62,58,97,89,77,30.14,30.05,13,1,13,0.00
2013-10-15,72,63,57,62,58,56,97,87,65,30.11,29.96,10,0,10,0.00
2013-10-16,72,61,50,63,58,49,98,89,70,30.00,29.87,5,0,5,0.00
2013-10-17,69,63,59,65,62,58,98,96,84,29.88,29.77,10,0,10,0.10
2013-10-18,71,60,52,62,58,52,98,91,70,29.94,29.81,6,0,6,0.01
2013-10-19,63,58,50,62,57,49,98,96,86,29.87,29.76,5,0,5,0.03
2013-10-20,67,53,42,52,47,41,97,84,53,29.99,29.83,7,0,7,0.00
2013-10-21,69,53,39,58,49,38,97,87,65,30.05,29.90,6,0,6,0.01
2013-10-22,67,57,53,59,55,52,97,92,75,29.91,29.70,1,0,7,0.00
2013-10-23,63,47,38,54,39,33,97,75,45,29.95,29.65,26,1,26,0.00
2013-10-24,61,44,30,46,38,29,96,79,51,30.06,29.95,10,0,10,0.00
2013-10-25,54,42,32,39,33,29,98,74,45,30.27,30.06,11,1,14,0.01
2013-10-26,59,36,27,40,31,25,95,83,48,30.25,29.96,10,0,10,0.00
2013-10-27,69,53,39,54,46,37,95,77,55,30.02,29.94,6,0,9,0.00
2013-10-28,71,56,47,59,52,46,97,87,58,30.15,30.00,5,0,5,0.00
2013-10-29,74,60,48,59,54,48,97,84,56,30.23,30.13,8,0,8,0.00
2013-10-30,79,62,51,63,56,50,97,83,55,30.18,30.05,14,0,14,0.00
2013-10-31,68,62,54,65,58,52,97,89,77,30.08,29.79,6,0,7,0.00
2013-11-1,68,64,58,65,62,57,97,92,81,29.79,29.59,13,0,13,0.17
2013-11-2,67,54,42,57,47,40,100,79,46,29.90,29.64,16,0,16,0.10
2013-11-3,63,47,36,44,39,34,96,77,44,30.24,29.90,9,0,13,0.00
2013-11-4,59,44,34,41,36,32,95,76,47,30.40,30.22,9,0,9,0.00
2013-11-5,57,46,36,49,40,31,96,80,66,30.44,30.31,13,0,13,0.02
2013-11-6,68,56,49,58,52,48,97,89,68,30.32,30.03,10,0,10,0.00
2013-11-7,71,52,41,62,47,35,98,85,42,30.04,29.87,22,1,22,0.03
2013-11-8,60,43,30,35,31,27,92,66,31,30.20,30.03,6,0,6,0.00
2013-11-9,58,43,28,39,33,26,94,70,45,30.26,30.09,14,0,14,0.00
2013-11-10,72,58,38,42,37,35,91,49,30,30.11,30.01,20,2,20,0.00
2013-11-11,62,45,32,36,33,28,89,65,36,30.25,30.03,6,0,6,0.00
2013-11-12,65,42,29,43,31,16,94,69,38,30.34,29.95,28,4,28,0.00
2013-11-13,49,33,20,24,20,16,87,61,34,30.42,30.33,10,0,10,0.00
2013-11-14,59,37,20,30,24,18,92,65,32,30.34,30.20,11,0,11,0.00
2013-11-15,56,42,27,46,35,23,96,76,50,30.22,30.08,6,0,6,0.10
2013-11-16,62,54,46,57,51,45,97,92,80,30.17,30.08,5,0,6,0.00
2013-11-17,63,58,54,60,56,52,100,95,87,30.11,29.80,4,0,4,0.35
2013-11-18,73,61,48,62,49,34,100,68,32,29.91,29.74,21,2,21,0.04
2013-11-19,56,46,36,36,31,28,82,57,37,30.14,29.90,16,1,16,0.00
2013-11-20,52,43,36,36,32,29,79,66,51,30.33,30.14,15,1,15,0.00
2013-11-21,54,48,44,48,42,34,96,78,67,30.36,30.26,9,1,12,0.02
2013-11-22,64,55,49,60,54,48,97,94,85,30.29,30.01,11,0,11,0.01
2013-11-23,59,53,40,57,46,26,98,78,49,30.10,29.97,16,1,16,0.00
2013-11-24,43,34,25,26,17,11,77,51,33,30.39,30.10,21,2,21,0.00
2013-11-25,40,31,19,24,18,10,90,59,37,30.42,30.19,6,0,6,0.00
2013-11-26,43,37,32,43,35,22,97,92,54,30.20,29.52,11,0,11,0.89
2013-11-27,45,37,27,44,32,18,97,81,60,30.08,29.43,19,3,24,0.01
2013-11-28,47,30,18,28,23,16,100,75,45,30.34,30.08,6,0,6,0.00
2013-11-29,53,34,22,33,26,20,94,75,40,30.45,30.33,6,0,6,0.00
2013-11-30,46,36,28,29,26,24,88,69,49,30.51,30.25,6,1,14,0.00
2013-12-1,57,38,26,42,32,25,94,79,54,30.25,29.91,8,0,8,0.00
2013-12-2,58,40,28,43,35,27,96,85,55,29.91,29.71,4,0,5,0.00
2013-12-3,60,52,46,53,49,42,97,89,75,29.85,29.76,5,0,5,0.01
2013-12-4,60,56,52,60,55,51,100,97,97,29.97,29.84,3,0,4,0.00
2013-12-5,66,63,60,66,62,59,98,98,96,30.00,29.91,9,0,13,0.00
2013-12-6,75,69,66,67,65,64,98,89,72,29.96,29.87,17,3,17,0.01
2013-12-7,66,53,46,65,48,39,98,82,74,30.28,29.90,16,1,16,0.00
2013-12-8,46,38,35,40,36,34,97,93,78,30.28,30.14,13,1,13,0.04
2013-12-9,44,39,34,43,38,33,100,97,96,30.15,29.93,1,0,3,0.31
2013-12-10,53,43,29,50,38,26,98,83,53,30.20,29.80,24,2,24,0.23
2013-12-11,50,34,22,34,27,21,95,78,50,30.32,30.17,11,0,11,0.00
2013-12-12,48,36,26,27,20,11,92,57,24,30.29,30.16,13,1,13,0.00
2013-12-13,50,34,20,32,25,18,92,72,44,30.25,30.13,11,0,11,0.00
2013-12-14,41,39,37,40,36,31,97,90,74,30.14,29.69,14,1,14,0.87
2013-12-15,50,41,30,40,36,26,97,81,57,30.00,29.65,16,1,16,0.01
2013-12-16,57,40,25,39,32,23,95,74,48,30.05,29.97,13,1,13,0.00
2013-12-17,62,47,29,42,35,27,94,66,46,30.02,29.82,28,3,28,0.00
2013-12-18,54,42,30,28,23,18,82,49,25,30.16,29.97,22,2,28,0.00
2013-12-19,62,42,24,34,28,22,93,64,31,30.20,30.10,10,0,13,0.00
2013-12-20,60,48,34,49,41,30,90,77,66,30.12,30.02,10,0,10,0.00
2013-12-21,65,55,46,63,53,44,97,94,88,30.04,29.89,7,0,7,0.01
2013-12-22,70,64,61,67,63,60,98,96,86,29.96,29.87,19,1,19,1.34
2013-12-23,63,56,44,62,53,36,98,91,70,30.07,29.89,13,1,13,0.90
2013-12-24,44,38,27,36,27,20,87,67,50,30.31,30.06,23,2,23,0.00
2013-12-25,40,28,20,23,19,15,90,69,42,30.42,30.25,7,0,7,0.00
2013-12-26,53,34,22,32,25,20,93,74,43,30.27,30.12,5,0,5,0.00
2013-12-27,52,34,24,32,26,22,94,74,41,30.35,30.23,4,0,4,0.00
2013-12-28,50,36,22,39,30,21,95,81,54,30.29,30.01,10,0,10,0.19
2013-12-29,56,46,40,52,44,39,97,92,81,30.02,29.69,12,1,12,0.80
2013-12-30,53,40,33,46,38,32,97,92,69,30.00,29.84,6,0,9,0.00
2013-12-31,50,40,30,40,30,23,95,71,38,30.24,29.99,20,1,20,0.00
2014-1-1,49,36,27,35,30,25,93,79,55,30.27,30.02,6,0,6,0.00
2014-1-2,46,40,29,45,37,17,97,89,61,30.03,29.56,24,2,27,0.22